User: anonymous   Login
Location: Caltech
(34.1382°N, 118.1253°W)
Time: 15:24:22
(UTC-08:00)
Language:

DELTA 2 R/B (1) - Orbit

View from above orbital plane
View from above orbital plane
View from above satellite
View from above satellite

Ground track
Ground track

The orbit data is extracted from the following two-line orbital elements,

1 27665U 03005C   16041.63489697 +.00000082 +00000-0 +66026-4 0  9992
2 27665 039.5761 098.1512 0009518 308.0505 186.9417 14.28390445680391
Epoch (UTC): 10 February 2016 15:14:15
Eccentricity: 0.0009518
inclination: 39.5761°
perigee height: 790 km
apogee height: 804 km
right ascension of ascending node: 98.1512°
argument of perigee: 308.0505°
revolutions per day: 14.28390445
mean anomaly at epoch: 186.9417°
orbit number at epoch: 68039

The dashed part of the orbit path shows where the satellite is in the earth's shadow,  

DLR